TimeEST,TemperatureF,Dew PointF,Humidity,Sea Level PressureIn,VisibilityMPH,Wind Direction,Wind SpeedMPH,Gust SpeedMPH,PrecipitationIn,Events,Conditions,WindDirDegrees,DateUTC
12:53 AM,62.1,57.0,84,30.08,10.0,NW,9.2,-,N/A,,Clear,310,2012-11-25 05:53:00
1:53 AM,59.0,55.0,87,30.08,10.0,NNW,8.1,-,N/A,,Clear,330,2012-11-25 06:53:00
2:53 AM,57.9,54.0,87,30.07,10.0,NW,6.9,-,N/A,,Clear,310,2012-11-25 07:53:00
3:53 AM,55.9,53.1,90,30.08,10.0,NW,5.8,-,N/A,,Clear,310,2012-11-25 08:53:00
4:53 AM,55.0,51.1,86,30.07,10.0,NW,3.5,-,N/A,,Clear,320,2012-11-25 09:53:00
5:53 AM,54.0,50.0,86,30.09,10.0,NW,4.6,-,N/A,,Clear,310,2012-11-25 10:53:00
6:53 AM,54.0,51.1,90,30.09,10.0,NW,5.8,-,N/A,,Clear,310,2012-11-25 11:53:00
7:53 AM,55.9,53.1,90,30.12,10.0,NW,6.9,-,N/A,,Clear,320,2012-11-25 12:53:00
8:53 AM,61.0,53.1,75,30.13,10.0,NW,5.8,-,N/A,,Clear,320,2012-11-25 13:53:00
9:53 AM,64.9,54.0,68,30.14,10.0,NW,4.6,-,N/A,,Clear,310,2012-11-25 14:53:00
10:53 AM,69.1,54.0,58,30.15,10.0,NW,6.9,-,N/A,,Clear,310,2012-11-25 15:53:00
11:53 AM,72.0,54.0,53,30.13,10.0,WNW,4.6,-,N/A,,Clear,290,2012-11-25 16:53:00
12:53 PM,73.0,52.0,48,30.11,10.0,Calm,Calm,-,N/A,,Clear,0,2012-11-25 17:53:00
1:53 PM,75.0,48.9,40,30.09,10.0,Calm,Calm,-,N/A,,Clear,0,2012-11-25 18:53:00
2:53 PM,75.9,48.9,38,30.07,10.0,NNW,4.6,-,N/A,,Clear,340,2012-11-25 19:53:00
3:53 PM,75.9,48.0,37,30.07,10.0,NW,3.5,-,N/A,,Clear,320,2012-11-25 20:53:00
4:53 PM,75.0,48.0,38,30.08,10.0,Calm,Calm,-,N/A,,Clear,0,2012-11-25 21:53:00
5:53 PM,68.0,53.1,59,30.09,10.0,SE,4.6,-,N/A,,Clear,130,2012-11-25 22:53:00
6:53 PM,68.0,55.0,63,30.11,10.0,Calm,Calm,-,N/A,,Clear,0,2012-11-25 23:53:00
7:53 PM,64.0,54.0,70,30.13,10.0,Calm,Calm,-,N/A,,Clear,0,2012-11-26 00:53:00
8:53 PM,62.1,54.0,75,30.14,10.0,Calm,Calm,-,N/A,,Clear,0,2012-11-26 01:53:00
9:53 PM,61.0,54.0,78,30.14,10.0,Calm,Calm,-,N/A,,Clear,0,2012-11-26 02:53:00
10:53 PM,59.0,54.0,83,30.14,10.0,Calm,Calm,-,N/A,,Clear,0,2012-11-26 03:53:00
11:53 PM,59.0,55.0,87,30.14,10.0,Calm,Calm,-,N/A,,Clear,0,2012-11-26 04:53:00